Location: Holyhead Bay
(53.3667°N, 4.6667°W)
Time: 23:10:04
(UTC+00:00)

Cosmos 1408 Rocket - Pass Details

Date: 21 April 2021
Orbit: 601 x 631 km, 82.6° (Epoch: 16 May)

Event Time Altitude Azimuth Distance (km) Brightness Sun altitude
Rises 21:09:53 0° 353° (N) 2,868 7.8 -13.3°
Reaches altitude 10° 21:12:14 10° 2° (N) 1,961 6.7 -13.5°
Maximum altitude 21:16:17 38° 71° (ENE) 935 4.2 -14.0°
Enters shadow 21:18:24 23° 124° (ESE) 1,296 4.6 -14.2°
